• In Russia
  • List of Countries
  • For 7 days
  • Water Temperature
  • Satellite Maps
  • Weather Map
  • Weather Widgets
  • user-avatar
    Login

    Hourly Weather Angir

    Today, 26 September, Wednesday

    Time Temperature Precipitation Wind Pressure Humidity
    00:00 +10°C° 0 mm 1 mps 703 mmHg 71%
    01:00 +10°C° 0 mm 1 mps 703 mmHg 72%
    02:00 +10°C° 0 mm 1 mps 703 mmHg 74%
    03:00 +9°C° 0 mm 1 mps 703 mmHg 77%
    04:00 +9°C° 0 mm 1 mps 703 mmHg 79%
    05:00 +8°C° 0 mm 2 mps 703 mmHg 80%
    06:00 +9°C° 0 mm 2 mps 703 mmHg 81%
    07:00 +9°C° 0 mm 2 mps 703 mmHg 82%
    08:00 +10°C° 0.1 mm 2 mps 703 mmHg 78%
    09:00 +12°C° 0.1 mm 2 mps 703 mmHg 74%
    10:00 +14°C° 0.1 mm 2 mps 703 mmHg 70%
    11:00 +12°C° 0.7 mm 3 mps 703 mmHg 73%
    12:00 +11°C° 0.7 mm 3 mps 702 mmHg 77%
    13:00 +11°C° 0.7 mm 4 mps 702 mmHg 80%
    14:00 +10°C° 0.3 mm 4 mps 702 mmHg 81%
    15:00 +8°C° 0.3 mm 4 mps 702 mmHg 82%
    16:00 +7°C° 0.3 mm 4 mps 702 mmHg 83%
    17:00 +8°C° 0.5 mm 3 mps 702 mmHg 85%
    18:00 +7°C° 0.5 mm 3 mps 703 mmHg 86%
    19:00 +7°C° 0.5 mm 3 mps 703 mmHg 87%
    20:00 +7°C° 0.4 mm 3 mps 703 mmHg 87%
    21:00 +5°C° 0.4 mm 3 mps 703 mmHg 88%
    22:00 +5°C° 0.4 mm 3 mps 703 mmHg 89%
    23:00 +5°C° 0.2 mm 3 mps 703 mmHg 88%

    Tomorrow, 27 September, Thursday

    Time Temperature Precipitation Wind Pressure Humidity
    00:00 +5°C° 0.2 mm 4 mps 703 mmHg 88%
    01:00 +5°C° 0.2 mm 5 mps 703 mmHg 88%
    02:00 +5°C° 0.1 mm 5 mps 703 mmHg 86%
    03:00 +4°C° 0.1 mm 6 mps 703 mmHg 85%
    04:00 +3°C° 0.1 mm 6 mps 704 mmHg 84%
    05:00 +3°C° 0 mm 6 mps 704 mmHg 83%
    06:00 +3°C° 0 mm 7 mps 704 mmHg 82%
    07:00 +2°C° 0 mm 7 mps 705 mmHg 81%
    08:00 +2°C° 0 mm 7 mps 705 mmHg 78%
    09:00 +3°C° 0 mm 7 mps 705 mmHg 74%
    10:00 +2°C° 0 mm 8 mps 705 mmHg 71%
    11:00 +2°C° 0 mm 8 mps 705 mmHg 69%
    12:00 +4°C° 0 mm 7 mps 705 mmHg 66%
    13:00 +4°C° 0 mm 7 mps 704 mmHg 64%
    14:00 +4°C° 0 mm 7 mps 704 mmHg 64%
    15:00 +4°C° 0 mm 7 mps 704 mmHg 64%
    16:00 +4°C° 0 mm 6 mps 704 mmHg 64%
    17:00 +3°C° 0 mm 6 mps 704 mmHg 68%
    18:00 +2°C° 0 mm 5 mps 704 mmHg 72%
    19:00 +1°C° 0 mm 4 mps 704 mmHg 76%
    20:00 +1°C° 0 mm 4 mps 704 mmHg 78%
    21:00 +1°C° 0 mm 4 mps 704 mmHg 80%
    22:00 +1°C° 0 mm 4 mps 704 mmHg 82%
    23:00 +1°C° 0 mm 4 mps 704 mmHg 83%

    Day after tomorrow, 28 September, Friday

    Time Temperature Precipitation Wind Pressure Humidity
    00:00 0°C° 0 mm 4 mps 704 mmHg 84%
    01:00 0°C° 0 mm 4 mps 703 mmHg 86%
    02:00 0°C° 0 mm 4 mps 703 mmHg 85%
    03:00 0°C° 0 mm 4 mps 703 mmHg 85%
    04:00 +1°C° 0 mm 4 mps 703 mmHg 84%
    05:00 +1°C° 0 mm 4 mps 704 mmHg 82%
    06:00 +1°C° 0 mm 4 mps 704 mmHg 81%
    07:00 +3°C° 0 mm 4 mps 704 mmHg 79%
    08:00 +3°C° 0 mm 4 mps 704 mmHg 76%
    09:00 +3°C° 0 mm 5 mps 705 mmHg 72%
    10:00 +4°C° 0 mm 6 mps 705 mmHg 68%
    11:00 +4°C° 0.1 mm 6 mps 705 mmHg 68%
    12:00 +4°C° 0.1 mm 6 mps 706 mmHg 67%
    13:00 +5°C° 0.1 mm 6 mps 706 mmHg 66%
    14:00 +5°C° 0.1 mm 6 mps 707 mmHg 67%
    15:00 +5°C° 0.1 mm 6 mps 707 mmHg 68%
    16:00 +5°C° 0.1 mm 6 mps 708 mmHg 69%
    17:00 +5°C° 0 mm 5 mps 708 mmHg 74%
    18:00 +3°C° 0 mm 5 mps 709 mmHg 78%
    19:00 +3°C° 0 mm 4 mps 709 mmHg 83%
    20:00 +3°C° 0 mm 4 mps 709 mmHg 84%
    21:00 +1°C° 0 mm 4 mps 710 mmHg 85%
    22:00 +1°C° 0 mm 4 mps 710 mmHg 86%
    23:00 +1°C° 0 mm 4 mps 710 mmHg 86%

    29 September, Saturday

    Time Temperature Precipitation Wind Pressure Humidity
    00:00 +1°C° 0 mm 4 mps 710 mmHg 86%
    01:00 +1°C° 0 mm 4 mps 710 mmHg 87%
    02:00 +2°C° 0 mm 3 mps 710 mmHg 86%
    03:00 +2°C° 0 mm 3 mps 710 mmHg 85%
    04:00 +3°C° 0 mm 3 mps 710 mmHg 83%
    05:00 +3°C° 0 mm 3 mps 711 mmHg 84%
    06:00 +4°C° 0 mm 2 mps 711 mmHg 84%
    07:00 +4°C° 0 mm 2 mps 711 mmHg 84%
    08:00 +5°C° 0 mm 2 mps 711 mmHg 80%
    09:00 +6°C° 0 mm 2 mps 711 mmHg 75%
    10:00 +7°C° 0 mm 2 mps 712 mmHg 70%
    11:00 +9°C° 0 mm 2 mps 712 mmHg 68%
    12:00 +10°C° 0 mm 2 mps 711 mmHg 65%
    13:00 +12°C° 0 mm 1 mps 711 mmHg 63%
    14:00 +12°C° 0 mm 1 mps 711 mmHg 64%
    15:00 +12°C° 0 mm 1 mps 711 mmHg 64%
    16:00 +12°C° 0 mm 1 mps 711 mmHg 65%
    17:00 +11°C° 0 mm 1 mps 711 mmHg 72%
    18:00 +9°C° 0 mm 1 mps 712 mmHg 78%
    19:00 +7°C° 0 mm 1 mps 712 mmHg 85%
    20:00 +7°C° 0 mm 1 mps 712 mmHg 86%
    21:00 +6°C° 0 mm 1 mps 712 mmHg 87%
    22:00 +6°C° 0 mm 1 mps 712 mmHg 88%
    23:00 +6°C° 0 mm 1 mps 712 mmHg 89%

    30 September, Sunday

    Time Temperature Precipitation Wind Pressure Humidity
    00:00 +5°C° 0 mm 1 mps 712 mmHg 89%
    01:00 +5°C° 0 mm 1 mps 712 mmHg 90%
    02:00 +5°C° 0 mm 1 mps 712 mmHg 90%
    03:00 +5°C° 0 mm 1 mps 712 mmHg 91%
    04:00 +4°C° 0 mm 1 mps 712 mmHg 91%
    05:00 +5°C° 0 mm 1 mps 712 mmHg 89%
    06:00 +5°C° 0 mm 1 mps 712 mmHg 88%
    07:00 +6°C° 0 mm 1 mps 713 mmHg 86%
    08:00 +8°C° 0 mm 1 mps 712 mmHg 77%
    09:00 +9°C° 0 mm 2 mps 712 mmHg 68%
    10:00 +12°C° 0 mm 2 mps 712 mmHg 59%
    11:00 +13°C° 0 mm 2 mps 712 mmHg 55%
    12:00 +14°C° 0 mm 2 mps 712 mmHg 51%
    13:00 +15°C° 0 mm 2 mps 712 mmHg 46%
    14:00 +14°C° 0 mm 3 mps 711 mmHg 47%
    15:00 +13°C° 0 mm 3 mps 711 mmHg 48%
    16:00 +13°C° 0 mm 3 mps 711 mmHg 48%
    17:00 +12°C° 0 mm 2 mps 711 mmHg 56%
    18:00 +9°C° 0 mm 2 mps 711 mmHg 63%
    19:00 +6°C° 0 mm 2 mps 711 mmHg 70%
    20:00 +6°C° 0 mm 2 mps 711 mmHg 72%
    21:00 +6°C° 0 mm 2 mps 711 mmHg 74%
    22:00 +6°C° 0 mm 1 mps 711 mmHg 76%
    23:00 +6°C° 0 mm 1 mps 711 mmHg 77%

    1 October, Monday

    Time Temperature Precipitation Wind Pressure Humidity
    00:00 +6°C° 0 mm 1 mps 711 mmHg 79%
    01:00 +6°C° 0 mm 1 mps 711 mmHg 80%
    02:00 +5°C° 0 mm 1 mps 711 mmHg 82%
    03:00 +5°C° 0 mm 1 mps 711 mmHg 83%
    04:00 +5°C° 0 mm 1 mps 711 mmHg 84%
    05:00 +6°C° 0 mm 1 mps 711 mmHg 81%
    06:00 +6°C° 0 mm 1 mps 711 mmHg 79%
    07:00 +7°C° 0 mm 1 mps 711 mmHg 77%
    08:00 +9°C° 0 mm 1 mps 710 mmHg 68%
    09:00 +12°C° 0 mm 1 mps 710 mmHg 60%
    10:00 +14°C° 0 mm 1 mps 710 mmHg 52%
    11:00 +15°C° 0 mm 1 mps 709 mmHg 49%
    12:00 +16°C° 0 mm 2 mps 709 mmHg 45%
    13:00 +17°C° 0 mm 2 mps 709 mmHg 42%
    14:00 +17°C° 0 mm 2 mps 708 mmHg 44%
    15:00 +17°C° 0 mm 2 mps 708 mmHg 45%
    16:00 +16°C° 0 mm 1 mps 708 mmHg 46%
    17:00 +14°C° 0 mm 1 mps 707 mmHg 52%
    18:00 +12°C° 0 mm 1 mps 707 mmHg 58%
    19:00 +10°C° 0 mm 1 mps 707 mmHg 64%
    20:00 +9°C° 0 mm 1 mps 707 mmHg 65%
    21:00 +9°C° 0 mm 1 mps 707 mmHg 66%
    22:00 +8°C° 0 mm 1 mps 707 mmHg 68%
    23:00 +8°C° 0 mm 1 mps 706 mmHg 69%
    Show more